Time,TemperatureF,DewpointF,PressureIn,WindDirection,WindDirectionDegrees,WindSpeedMPH,WindSpeedGustMPH,Humidity,HourlyPrecipIn,Conditions,Clouds,dailyrainin,SoftwareType,DateUTC
2015-03-31 00:12:00,43.9,35.0,30.03,South,184,0.0,0.0,71,0.00,,,0.00,weatherlink.com 1.10,2015-03-31 05:12:00,
2015-03-31 00:28:00,43.4,36.0,30.03,South,184,0.0,0.0,75,0.00,,,0.00,weatherlink.com 1.10,2015-03-31 05:28:00,
2015-03-31 00:45:00,43.1,36.0,30.02,South,184,0.0,0.0,76,0.00,,,0.00,weatherlink.com 1.10,2015-03-31 05:45:00,
2015-03-31 01:01:00,42.2,36.0,30.02,South,184,0.0,0.0,77,0.00,,,0.00,weatherlink.com 1.10,2015-03-31 06:01:00,
2015-03-31 01:18:00,41.7,35.0,30.02,South,184,0.0,0.0,76,0.00,,,0.00,weatherlink.com 1.10,2015-03-31 06:18:00,
2015-03-31 01:34:00,41.3,36.0,30.02,South,185,0.0,0.0,80,0.00,,,0.00,weatherlink.com 1.10,2015-03-31 06:34:00,
2015-03-31 01:50:00,41.5,36.0,30.02,South,185,0.0,0.0,81,0.00,,,0.00,weatherlink.com 1.10,2015-03-31 06:50:00,
2015-03-31 02:06:00,41.0,36.0,30.01,South,184,0.0,0.0,81,0.00,,,0.00,weatherlink.com 1.10,2015-03-31 07:06:00,
2015-03-31 02:22:00,39.5,34.0,30.01,South,184,0.0,0.0,82,0.00,,,0.00,weatherlink.com 1.10,2015-03-31 07:22:00,
2015-03-31 02:38:00,39.7,35.0,30.00,South,184,0.0,0.0,84,0.00,,,0.00,weatherlink.com 1.10,2015-03-31 07:38:00,
2015-03-31 02:54:00,40.6,36.0,30.00,South,184,0.0,0.0,82,0.00,,,0.00,weatherlink.com 1.10,2015-03-31 07:54:00,
2015-03-31 03:10:00,40.5,35.0,29.99,South,184,0.0,0.0,81,0.00,,,0.00,weatherlink.com 1.10,2015-03-31 08:10:00,
2015-03-31 03:26:00,40.3,36.0,29.98,South,184,0.0,0.0,83,0.00,,,0.00,weatherlink.com 1.10,2015-03-31 08:26:00,
2015-03-31 03:44:00,39.7,35.0,29.97,South,184,0.0,0.0,84,0.00,,,0.00,weatherlink.com 1.10,2015-03-31 08:44:00,
2015-03-31 03:59:00,38.5,34.0,29.97,South,184,0.0,0.0,84,0.00,,,0.00,weatherlink.com 1.10,2015-03-31 08:59:00,
2015-03-31 04:16:00,38.4,35.0,29.96,South,184,0.0,0.0,86,0.00,,,0.00,weatherlink.com 1.10,2015-03-31 09:16:00,
2015-03-31 04:32:00,38.1,34.0,29.96,South,184,0.0,0.0,86,0.00,,,0.00,weatherlink.com 1.10,2015-03-31 09:32:00,
2015-03-31 04:48:00,37.8,35.0,29.96,South,184,0.0,0.0,88,0.00,,,0.00,weatherlink.com 1.10,2015-03-31 09:48:00,
2015-03-31 05:04:00,38.0,34.0,29.95,South,184,0.0,0.0,87,0.00,,,0.00,weatherlink.com 1.10,2015-03-31 10:04:00,
2015-03-31 05:20:00,37.3,34.0,29.96,South,185,0.0,0.0,88,0.00,,,0.00,weatherlink.com 1.10,2015-03-31 10:20:00,
2015-03-31 05:37:00,37.9,35.0,29.95,South,184,0.0,0.0,88,0.00,,,0.00,weatherlink.com 1.10,2015-03-31 10:37:00,
2015-03-31 05:53:00,37.5,34.0,29.96,South,184,0.0,0.0,88,0.00,,,0.00,weatherlink.com 1.10,2015-03-31 10:53:00,
2015-03-31 06:10:00,37.4,34.0,29.96,South,184,0.0,0.0,89,0.00,,,0.00,weatherlink.com 1.10,2015-03-31 11:10:00,
2015-03-31 06:26:00,37.6,34.0,29.96,South,184,0.0,0.0,88,0.00,,,0.00,weatherlink.com 1.10,2015-03-31 11:26:00,
2015-03-31 06:42:00,37.3,34.0,29.96,South,185,0.0,0.0,89,0.00,,,0.00,weatherlink.com 1.10,2015-03-31 11:42:00,
2015-03-31 06:58:00,37.8,35.0,29.96,South,184,0.0,0.0,90,0.00,,,0.00,weatherlink.com 1.10,2015-03-31 11:58:00,
2015-03-31 07:15:00,38.4,35.0,29.96,South,186,0.0,0.0,89,0.00,,,0.00,weatherlink.com 1.10,2015-03-31 12:15:00,
2015-03-31 07:31:00,40.8,37.0,29.96,South,186,0.0,0.0,86,0.00,,,0.00,weatherlink.com 1.10,2015-03-31 12:31:00,
2015-03-31 07:47:00,43.2,39.0,29.96,South,186,0.0,0.0,84,0.00,,,0.00,weatherlink.com 1.10,2015-03-31 12:47:00,
2015-03-31 08:03:00,46.2,39.0,29.96,South,187,0.0,0.0,76,0.00,,,0.00,weatherlink.com 1.10,2015-03-31 13:03:00,
2015-03-31 08:20:00,51.4,40.0,29.96,SW,221,0.0,3.0,65,0.00,,,0.00,weatherlink.com 1.10,2015-03-31 13:20:00,
2015-03-31 08:36:00,54.9,44.0,29.95,SW,217,0.0,1.0,67,0.00,,,0.00,weatherlink.com 1.10,2015-03-31 13:36:00,
2015-03-31 08:52:00,59.0,47.0,29.95,West,273,2.0,4.0,65,0.00,,,0.00,weatherlink.com 1.10,2015-03-31 13:52:00,
2015-03-31 09:09:00,61.7,49.0,29.95,WSW,245,2.0,5.0,63,0.00,,,0.00,weatherlink.com 1.10,2015-03-31 14:09:00,
2015-03-31 09:26:00,63.7,51.0,29.95,WSW,252,3.0,8.0,63,0.00,,,0.00,weatherlink.com 1.10,2015-03-31 14:26:00,
2015-03-31 09:42:00,65.0,53.0,29.94,West,273,3.0,7.0,64,0.00,,,0.00,weatherlink.com 1.10,2015-03-31 14:42:00,
2015-03-31 09:58:00,65.6,53.0,29.94,WSW,248,2.0,10.0,63,0.00,,,0.00,weatherlink.com 1.10,2015-03-31 14:58:00,
2015-03-31 10:14:00,66.1,53.0,29.94,SW,226,5.0,6.0,63,0.00,,,0.00,weatherlink.com 1.10,2015-03-31 15:14:00,
2015-03-31 10:30:00,67.5,54.0,29.94,WSW,248,2.0,5.0,61,0.00,,,0.00,weatherlink.com 1.10,2015-03-31 15:30:00,
2015-03-31 10:47:00,68.8,54.0,29.94,WSW,254,2.0,7.0,59,0.00,,,0.00,weatherlink.com 1.10,2015-03-31 15:47:00,
2015-03-31 11:03:00,69.2,54.0,29.94,NNW,334,4.0,8.0,59,0.00,,,0.00,weatherlink.com 1.10,2015-03-31 16:03:00,
2015-03-31 11:19:00,70.0,53.0,29.94,West,262,3.0,10.0,54,0.00,,,0.00,weatherlink.com 1.10,2015-03-31 16:19:00,
2015-03-31 11:35:00,71.3,53.0,29.93,WNW,285,1.0,11.0,52,0.00,,,0.00,weatherlink.com 1.10,2015-03-31 16:35:00,
2015-03-31 11:51:00,72.0,54.0,29.93,WNW,298,2.0,8.0,54,0.00,,,0.00,weatherlink.com 1.10,2015-03-31 16:51:00,
2015-03-31 12:09:00,72.6,53.0,29.92,WSW,245,4.0,5.0,50,0.00,,,0.00,weatherlink.com 1.10,2015-03-31 17:09:00,
2015-03-31 12:25:00,73.7,52.0,29.92,West,259,1.0,7.0,46,0.00,,,0.00,weatherlink.com 1.10,2015-03-31 17:25:00,
2015-03-31 12:42:00,74.1,53.0,29.91,WNW,293,2.0,9.0,48,0.00,,,0.00,weatherlink.com 1.10,2015-03-31 17:42:00,
2015-03-31 12:58:00,74.0,51.0,29.91,WNW,294,3.0,8.0,45,0.00,,,0.00,weatherlink.com 1.10,2015-03-31 17:58:00,
2015-03-31 13:14:00,75.6,53.0,29.90,SW,227,4.0,8.0,46,0.00,,,0.00,weatherlink.com 1.10,2015-03-31 18:14:00,
2015-03-31 13:30:00,76.2,52.0,29.90,WNW,295,3.0,8.0,43,0.00,,,0.00,weatherlink.com 1.10,2015-03-31 18:30:00,
2015-03-31 13:46:00,76.5,52.0,29.89,WSW,256,4.0,9.0,43,0.00,,,0.00,weatherlink.com 1.10,2015-03-31 18:46:00,
2015-03-31 14:02:00,76.6,50.0,29.89,WNW,292,3.0,8.0,40,0.00,,,0.00,weatherlink.com 1.10,2015-03-31 19:02:00,
2015-03-31 14:19:00,76.6,51.0,29.88,West,276,2.0,9.0,41,0.00,,,0.00,weatherlink.com 1.10,2015-03-31 19:19:00,
2015-03-31 14:35:00,76.3,53.0,29.88,NNW,328,8.0,12.0,44,0.00,,,0.00,weatherlink.com 1.10,2015-03-31 19:35:00,
2015-03-31 14:51:00,76.0,49.0,29.88,SW,234,8.0,13.0,39,0.00,,,0.00,weatherlink.com 1.10,2015-03-31 19:51:00,
2015-03-31 15:07:00,76.1,51.0,29.87,West,267,3.0,12.0,42,0.00,,,0.00,weatherlink.com 1.10,2015-03-31 20:07:00,
2015-03-31 15:23:00,76.5,50.0,29.87,NNW,328,3.0,8.0,40,0.00,,,0.00,weatherlink.com 1.10,2015-03-31 20:23:00,
2015-03-31 15:39:00,76.9,49.0,29.86,NW,310,3.0,9.0,37,0.00,,,0.00,weatherlink.com 1.10,2015-03-31 20:39:00,
2015-03-31 15:55:00,77.1,49.0,29.86,NNE,13,6.0,12.0,37,0.00,,,0.00,weatherlink.com 1.10,2015-03-31 20:55:00,
2015-03-31 16:12:00,76.8,46.0,29.86,NW,310,4.0,9.0,33,0.00,,,0.00,weatherlink.com 1.10,2015-03-31 21:12:00,
2015-03-31 16:29:00,77.7,49.0,29.85,NW,306,3.0,8.0,36,0.00,,,0.00,weatherlink.com 1.10,2015-03-31 21:29:00,
2015-03-31 16:45:00,77.9,50.0,29.85,West,277,1.0,6.0,38,0.00,,,0.00,weatherlink.com 1.10,2015-03-31 21:45:00,
2015-03-31 17:01:00,77.4,46.0,29.84,WNW,299,2.0,9.0,33,0.00,,,0.00,weatherlink.com 1.10,2015-03-31 22:01:00,
2015-03-31 17:17:00,77.1,47.0,29.84,NW,307,2.0,8.0,35,0.00,,,0.00,weatherlink.com 1.10,2015-03-31 22:17:00,
2015-03-31 17:33:00,76.5,44.0,29.85,North,350,5.0,11.0,32,0.00,,,0.00,weatherlink.com 1.10,2015-03-31 22:33:00,